Starlink 31166

operational
NORAD ID: 58789 Int'l Des: 2024-012 Owner: SPXS Country: US Constellation: starlink
LEOCIRCULAR

Starlink 31166について

説明を読み込み中...

リアルタイム位置

3D地球を読み込み中...

次回通過

高度履歴

Altitude vs Time

uPlot chart will show altitude changes over time

軌道要素

1 58789U 24012C 25256.79300261 .00001819 00000-0 75576-4 0 9997
2 58789 43.0013 84.1083 0001510 250.6419 109.4270 15.27594843 94181
Epoch: Sep 13, 2025 • Age: 55 hours

現在のステータス

高度 487.1 km
速度 7.63 km/s
衛星直下点 43.03°N, 135.81°E
打ち上げ日 Jan 15, 2024
運用期間 1.6 years
タイプ internet

技術仕様

分類 Payload
質量 730.00 kg
乾燥質量 700.00 kg
総質量 730.00 kg
長さ 0.30 m
直径 4.10 m
スパン 29.00 m
形状 Box + pan
製造者 SPXS
バスタイプ Starlink V2M
フェーズステータス In Orbit
所有者/国 SPXS/US

大規模コンステレーション

Loading constellations...